Lancaster, OH

2:07 AM EDT on July 26, 2017 (GMT -0400)
Fairfield County

Weather History for KLHQ - January, 2013

Change the Weather History Date:

Sunday, January 6, 2013

  Actual Average Record
Temperature  
Mean Temperature 32 °F -  
Max Temperature 37 °F 32 °F 70 °F (1946)
Min Temperature 27 °F 16 °F -16 °F (1942)
Degree Days  
Heating Degree Days 33    
Moisture  
Dew Point 27 °F    
Average Humidity 78    
Maximum Humidity 93    
Minimum Humidity 70    
Precipitation  
Precipitation 0.02 in - - ()
Sea Level Pressure  
Sea Level Pressure 30.13 in    
Wind  
Wind Speed 6 mph (WSW)    
Max Wind Speed 13 mph    
Max Gust Speed 24 mph    
Visibility 7 miles    
Events Snow    
Averages and records for this station are not official NWS values.
T = Trace of Precipitation, MM = Missing Value Source: NWS Daily Summary

Daily Weather History Graph

Daily Weather History Graph

Search for Another Location

Airport or City:

Trip Planner

Search our weather history database for the weather conditions in past years. The results will help you decide how hot, cold, wet, or windy it might be!

Date:

Astronomy

Jan. 06, 2013 Rise Set
Actual Time 7:51 AM EST 5:21 PM EST
Civil Twilight 7:21 AM EST 5:51 PM EST
Nautical Twilight 6:48 AM EST 6:25 PM EST
Astronomical Twilight 6:15 AM EST 6:57 PM EST
Moon 2:05 AM EST (1/6) 12:47 PM EST (1/6)
Length of Visible Light 10h 29m
Length of Day
9h 29m
Waning Crescent, 33% of the Moon is Illuminated
Jan 6
Waning Crescent
Jan 11
New
Jan 18
First Quarter
Jan 26
Full
Feb 3
Last Quarter

Hourly Weather History & Observations

Time (EST) Temp. Windchill Dew Point Humidity Pressure Visibility Wind Dir Wind Speed Gust Speed Precip Events Conditions
12:53 AM 35.1 °F 32.2 °F 26.1 °F 70% 30.16 in 10.0 mi WSW 3.5 mph - N/A   Overcast
1:53 AM 34.0 °F 29.8 °F 25.0 °F 70% 30.15 in 10.0 mi WSW 4.6 mph - N/A   Partly Cloudy
2:53 AM 33.1 °F 30.0 °F 25.0 °F 72% 30.14 in 10.0 mi South 3.5 mph - N/A   Overcast
3:53 AM 33.1 °F 28.7 °F 25.0 °F 72% 30.12 in 10.0 mi SSW 4.6 mph - N/A   Overcast
4:53 AM 34.0 °F 31.0 °F 26.1 °F 73% 30.10 in 10.0 mi SSW 3.5 mph - N/A   Overcast
5:53 AM 35.1 °F 29.3 °F 26.1 °F 70% 30.09 in 10.0 mi SSW 6.9 mph - N/A   Overcast
6:53 AM 35.1 °F 30.1 °F 27.0 °F 72% 30.09 in 10.0 mi SSW 5.8 mph - N/A   Overcast
7:53 AM 35.1 °F 29.3 °F 27.0 °F 72% 30.09 in 10.0 mi SW 6.9 mph - N/A   Overcast
8:53 AM 36.0 °F 29.6 °F 27.0 °F 70% 30.09 in 10.0 mi SW 8.1 mph - N/A   Overcast
9:53 AM 36.0 °F 28.5 °F 28.0 °F 73% 30.09 in 10.0 mi SSW 10.4 mph - N/A   Overcast
10:53 AM 37.0 °F 31.6 °F 28.0 °F 70% 30.09 in 10.0 mi SSW 6.9 mph - N/A   Overcast
11:53 AM 37.0 °F 31.0 °F 28.0 °F 70% 30.06 in 10.0 mi SW 8.1 mph - N/A   Overcast
1:40 PM 37.4 °F 32.1 °F 28.4 °F 70% 30.01 in 10.0 mi SW 6.9 mph - N/A   Overcast
1:53 PM 37.9 °F 33.5 °F 28.9 °F 70% 30.04 in 10.0 mi SW 5.8 mph - N/A   Overcast
2:53 PM 37.0 °F 31.6 °F 30.0 °F 76% 30.05 in 9.0 mi West 6.9 mph - 0.00 in   Overcast
3:44 PM 35.6 °F 29.2 °F 30.2 °F 81% 30.05 in 2.5 mi West 8.1 mph - 0.02 in Snow Light Snow
3:48 PM 35.6 °F 29.2 °F 30.2 °F 81% 30.06 in 2.0 mi West 8.1 mph - 0.02 in Snow Light Snow
3:53 PM 34.0 °F 28.8 °F 32.0 °F 92% 30.08 in 2.0 mi West 5.8 mph - 0.02 in Snow Light Snow
3:58 PM 33.8 °F 26.4 °F 32.0 °F 93% 30.06 in 3.0 mi West 9.2 mph - 0.00 in Snow Light Snow
4:08 PM 35.6 °F 29.2 °F 32.0 °F 87% 30.06 in 4.0 mi West 8.1 mph - 0.00 in   Overcast
4:53 PM 35.1 °F 30.1 °F 32.0 °F 89% 30.10 in 4.0 mi West 5.8 mph - 0.00 in   Overcast
5:00 PM 35.6 °F 30.7 °F 32.0 °F 87% 30.08 in 4.0 mi West 5.8 mph - N/A   Overcast
5:14 PM 35.6 °F 28.0 °F 30.2 °F 81% 30.09 in 5.0 mi West 10.4 mph 19.6 mph N/A   Overcast
5:45 PM 33.8 °F 24.8 °F 28.4 °F 81% 30.12 in 9.0 mi WNW 12.7 mph 24.2 mph 0.00 in   Overcast
5:53 PM 33.1 °F 23.9 °F 28.0 °F 82% 30.15 in 8.0 mi WNW 12.7 mph 20.7 mph 0.00 in   Overcast
6:50 PM 32.0 °F 23.0 °F 28.4 °F 87% 30.17 in 5.0 mi NW 11.5 mph 18.4 mph N/A   Overcast
6:53 PM 30.9 °F 22.8 °F 28.0 °F 89% 30.19 in 4.0 mi NW 9.2 mph - N/A   Overcast
7:53 PM 28.9 °F 21.1 °F 23.0 °F 78% 30.23 in 5.0 mi WNW 8.1 mph 21.9 mph N/A   Haze
8:09 PM 28.4 °F 18.5 °F 21.2 °F 74% 30.22 in 6.0 mi WNW 11.5 mph - N/A   Haze
8:53 PM 28.0 °F 18.6 °F 21.9 °F 78% 30.26 in 6.0 mi WNW 10.4 mph - N/A   Haze
9:53 PM 28.0 °F 20.0 °F 21.9 °F 78% 30.29 in 5.0 mi WNW 8.1 mph - N/A   Haze
10:01 PM 28.4 °F 20.4 °F 21.2 °F 74% 30.26 in 5.0 mi WNW 8.1 mph - N/A   Haze
10:53 PM 27.0 °F 20.5 °F 21.9 °F 81% 30.32 in 4.0 mi WNW 5.8 mph - N/A   Haze
11:53 PM 27.0 °F 20.5 °F 21.9 °F 81% 30.33 in 4.0 mi West 5.8 mph - N/A   Haze